Regional Weather Roundup
Issued by NWS

Home | Current Version | Previous Version | Graphics & Text | Print | Product List | Glossary On
Versions: 1 2 3 4 5 6 7 8 9 10 11 12 13 14 15 16 17 18 19 20 21 22 23 24 25 26 27 28 29 30 31 32 33 34 35 36 37 38 39 40 41 42 43 44 45 46 47 48 49 50
000
ASUS43 KLMK 122110
RWRKY
KENTUCKY REGIONAL WEATHER ROUNDUP
NATIONAL WEATHER SERVICE LOUISVILLE KY
400 PM EST TUE DEC 12 2017

NOTE "FAIR" INDICATES FEW OR NO CLOUDS BELOW 12,000 FEET
WITH NO SIGNIFICANT WEATHER AND/OR OBSTRUCTIONS TO VISIBILITY.

KYZ001>023-026-027-061>063-070>075-122200-
WESTERN AND SOUTH CENTRAL KENTUCKY

CITY           SKY/WX    TMP DP  RH WIND       PRES   REMARKS
PADUCAH        MOSUNNY   39  11  31 W13G20    30.13F WCI  31
HENDERSON      NOT AVBL
OWENSBORO      SUNNY     34   9  35 NW14      30.10S WCI  25
HOPKINSVILLE   MOSUNNY   37   9  31 NW13      30.09S WCI  29
BOWLING GREEN  SUNNY     37  13  37 NW12G24   30.07R WCI  29
GLASGOW        SUNNY     36  12  37 W18       30.04R WCI  26
$$

KYZ024-025-028>034-038-045-046-053-122200-
NORTH CENTRAL KENTUCKY

CITY           SKY/WX    TMP DP  RH WIND       PRES   REMARKS
LOUISVILLE/SDF MOSUNNY   33   8  35 W18G25    30.02R WCI  22
LOUISVILLE/LOU SUNNY     33   7  33 NW13G22   30.02S WCI  24
FORT KNOX      SUNNY     31   4  31 W18G25    30.01S WCI  19
$$

KYZ035>037-039>044-047>052-055>060-089>105-122200-
NORTHEAST KENTUCKY

CITY           SKY/WX    TMP DP  RH WIND       PRES   REMARKS
LEXINGTON      MOSUNNY   32   9  38 NW18G29   29.95S WCI  20
COVINGTON      PTSUNNY   28  11  48 NW22G30   29.95R WCI  14
FRANKFORT      MOSUNNY   31   5  33 NW15G29   29.96R WCI  20
$$

KYZ054-064>069-076>088-106>120-122200-
SOUTHEAST KENTUCKY

CITY           SKY/WX    TMP DP  RH WIND       PRES   REMARKS
JACKSON        PTSUNNY   31   8  38 NW15G31   29.88R WCI  20
LONDON         PTSUNNY   35  10  35 W17G30    29.91R WCI  25
SOMERSET       MOSUNNY   32   1  27 W17G26    29.98R WCI  21
MIDDLESBORO    CLOUDY    35  15  43 NW12G25   29.91R WCI  27
MONTICELLO     MOCLDY    35   9  33 W22G29    29.99R WCI  23
$$




USA.gov is the U.S. government's official web portal to all federal, state and local government web resources and services.